Location: Dodgeville, WI 53533, USA
(43.0344°N, 90.0900°W)
Time: 18:45:46
(UTC-06:00)

N. Korean satellite - Pass Details

Date: 25 January 2021
Orbit: 451 x 502 km, 97.2° (Epoch: 06 March)

Event Time Altitude Azimuth Distance (km) Brightness Sun altitude
Rises 05:00:44 0° 20° (NNE) 2,505 10.4 -25.7°
Reaches altitude 10° 05:02:56 10° 30° (NNE) 1,616 9.5 -25.3°
Maximum altitude 05:06:08 34° 97° (E) 766 8.1 -24.8°
Drops below altitude 10° 05:09:16 10° 165° (SSE) 1,585 9.4 -24.2°
Sets 05:11:24 0° 174° (S) 2,449 10.3 -23.8°
